Погода в Берегаеве

Россия / Томская область     57°12′06″N   87°32′53″E
темп.,
°C
ветер,
м/с
пор.,
м/с
влажн.,
%
обл.,
%
осадки,
мм/ч
давл.,
гПа
погр.,
м
3 марта, ср
ср301:00−23в229953 0.0 101922
04:00−24в229951 0.0 101828
07:00−24в239964 0.0 101941
10:00−21в239778 0.0 1019135
13:00−14вюв238786 0.0 1019392
16:00−11юв2386100 0.1 1019584
19:00−13юв229699 0.1 102020
22:00−13ююв249796 0.1 1021106
4 марта, чт
чт401:00−14ю279794 0.2 1021197
04:00−14ю3109794 0.1 1020335
07:00−13ююз4139297 0.1 1020543
10:00−10ююз51288100 0.0 1018734
13:00−9ююз61293100 0.9 1017827
16:00−7ююз61193100 0.9 1016887
19:00−6ююз51294100 1.6 1016845
22:00−5ююз51393100 0.3 1015836
5 марта, пт
пт501:00−5ююз51294100 0.7 1013862
04:00−5ююз51294100 0.8 1012765
07:00−6ююз51394100 1.6 1011656
10:00−5ююз61392100 0.6 1009717
13:00−4ююз61394100 1.6 1009875
16:00−3ююз61394100 1.3 10071094
19:00−4юз61394100 2.3 10101064
22:00−5юз61289100 0.3 10111033
6 марта, сб
сб601:00−6юз51294100 1.0 10121196
04:00−7зюз51290100 0.7 1014924
07:00−8юз41294100 0.9 1015731
10:00−6юз51192100 0.1 1015747
13:00−4ююз51093100 0.4 1013869
16:00−3ююз51194100 1.1 10101023
19:00−4ююз61395100 2.6 10081209
22:00−5юз61493100 1.6 10071235
7 марта, вс
вс701:00−5юз61493100 2.3 10061120
04:00−4юз71589100 0.5 10061071
07:00−4юз71693100 0.8 10071202
10:00−4зюз71482100 0.2 10091155
13:00−4зюз7128091 0.3 10111153
16:00−4зюз5118192 0.0 10121135
19:00−6юз3108996 0.0 1013421
22:00−6ю2696100 0.1 1012186